When you browse on this site, cookies collect data to enhance your experience and personalize the content and advertising you see.
Visit our Privacy Policy to learn more. By continuing to use the site, you agree to this use of cookies and data.
  • In Schweiz
  • Länderverzeichnis
  • Für 7 Tage
  • Wassertemperatur
  • Wetterkarte
  • Widgets
  • user-avatar
    Anmelden

    Stündliche Wetter Yangzhou

    Heute, 3 Juni, Mittwoch

    Zeit Temperatur Niederschläge Wind Luftdruck Luftfeuchtigkeit
    00:00 +29°C° 0.5 mm 4 m/S 751 mmHg 68%
    01:00 +28°C° 0.5 mm 4 m/S 751 mmHg 73%
    02:00 +27°C° 0 mm 5 m/S 750 mmHg 74%
    03:00 +27°C° 0.2 mm 4 m/S 751 mmHg 74%
    04:00 +27°C° 0.2 mm 4 m/S 751 mmHg 74%
    05:00 +27°C° 0.2 mm 3 m/S 751 mmHg 74%
    06:00 +27°C° 0 mm 3 m/S 751 mmHg 72%
    07:00 +28°C° 0 mm 2 m/S 751 mmHg 69%
    08:00 +28°C° 0 mm 3 m/S 751 mmHg 66%
    09:00 +29°C° 0 mm 2 m/S 751 mmHg 60%
    10:00 +30°C° 0 mm 2 m/S 751 mmHg 55%
    11:00 +32°C° 0 mm 2 m/S 751 mmHg 50%
    12:00 +33°C° 0 mm 3 m/S 750 mmHg 47%
    13:00 +34°C° 0 mm 3 m/S 750 mmHg 44%
    14:00 +34°C° 0 mm 3 m/S 750 mmHg 41%
    15:00 +35°C° 0 mm 3 m/S 750 mmHg 39%
    16:00 +35°C° 0 mm 2 m/S 750 mmHg 37%
    17:00 +35°C° 0 mm 2 m/S 750 mmHg 35%
    18:00 +32°C° 0 mm 2 m/S 750 mmHg 46%
    19:00 +31°C° 0 mm 3 m/S 750 mmHg 57%
    20:00 +29°C° 0 mm 4 m/S 750 mmHg 68%
    21:00 +28°C° 0 mm 4 m/S 751 mmHg 71%
    22:00 +28°C° 0 mm 3 m/S 751 mmHg 75%
    23:00 +27°C° 0 mm 3 m/S 751 mmHg 79%

    Morgen, 4 Juni, Donnerstag

    Zeit Temperatur Niederschläge Wind Luftdruck Luftfeuchtigkeit
    00:00 +27°C° 0 mm 3 m/S 751 mmHg 80%
    01:00 +26°C° 0 mm 2 m/S 750 mmHg 82%
    02:00 +26°C° 0 mm 2 m/S 750 mmHg 83%
    03:00 +25°C° 0 mm 2 m/S 750 mmHg 83%
    04:00 +25°C° 0 mm 2 m/S 750 mmHg 83%
    05:00 +25°C° 0 mm 2 m/S 751 mmHg 83%
    06:00 +27°C° 0 mm 2 m/S 751 mmHg 75%
    07:00 +29°C° 0 mm 2 m/S 751 mmHg 66%
    08:00 +31°C° 0 mm 2 m/S 751 mmHg 57%
    09:00 +33°C° 0 mm 1 m/S 752 mmHg 49%
    10:00 +35°C° 0 mm 1 m/S 752 mmHg 41%
    11:00 +35°C° 0 mm 0 m/S 752 mmHg 33%
    12:00 +37°C° 0 mm 1 m/S 751 mmHg 31%
    13:00 +39°C° 0 mm 2 m/S 751 mmHg 29%
    14:00 +39°C° 0 mm 3 m/S 750 mmHg 28%
    15:00 +40°C° 0 mm 4 m/S 750 mmHg 29%
    16:00 +38°C° 0 mm 4 m/S 750 mmHg 30%
    17:00 +38°C° 0 mm 4 m/S 750 mmHg 31%
    18:00 +36°C° 0 mm 4 m/S 750 mmHg 38%
    19:00 +34°C° 0 mm 4 m/S 751 mmHg 44%
    20:00 +32°C° 0 mm 4 m/S 751 mmHg 51%
    21:00 +30°C° 0 mm 4 m/S 752 mmHg 56%
    22:00 +29°C° 0 mm 4 m/S 752 mmHg 62%
    23:00 +28°C° 0 mm 3 m/S 752 mmHg 67%

    übermorgen, 5 Juni, Freitag

    Zeit Temperatur Niederschläge Wind Luftdruck Luftfeuchtigkeit
    00:00 +27°C° 0 mm 3 m/S 752 mmHg 70%
    01:00 +26°C° 0 mm 2 m/S 752 mmHg 73%
    02:00 +25°C° 0 mm 2 m/S 751 mmHg 75%
    03:00 +25°C° 0 mm 2 m/S 751 mmHg 78%
    04:00 +25°C° 0 mm 2 m/S 751 mmHg 80%
    05:00 +24°C° 0 mm 2 m/S 751 mmHg 82%
    06:00 +26°C° 0 mm 2 m/S 751 mmHg 76%
    07:00 +27°C° 0 mm 3 m/S 751 mmHg 70%
    08:00 +29°C° 0 mm 3 m/S 752 mmHg 64%
    09:00 +30°C° 0 mm 4 m/S 752 mmHg 57%
    10:00 +33°C° 0 mm 5 m/S 752 mmHg 50%
    11:00 +34°C° 0 mm 6 m/S 752 mmHg 43%
    12:00 +35°C° 0 mm 6 m/S 752 mmHg 42%
    13:00 +35°C° 0 mm 6 m/S 752 mmHg 41%
    14:00 +36°C° 0 mm 7 m/S 751 mmHg 40%
    15:00 +34°C° 0 mm 7 m/S 751 mmHg 46%
    16:00 +33°C° 0 mm 6 m/S 751 mmHg 53%
    17:00 +32°C° 0 mm 6 m/S 752 mmHg 59%
    18:00 +30°C° 0.1 mm 6 m/S 752 mmHg 65%
    19:00 +29°C° 0.1 mm 5 m/S 752 mmHg 71%
    20:00 +27°C° 0.1 mm 5 m/S 752 mmHg 77%
    21:00 +27°C° 0 mm 4 m/S 752 mmHg 79%
    22:00 +27°C° 0 mm 4 m/S 753 mmHg 82%
    23:00 +26°C° 0 mm 3 m/S 753 mmHg 84%

    6 Juni, Samstag

    Zeit Temperatur Niederschläge Wind Luftdruck Luftfeuchtigkeit
    00:00 +26°C° 0 mm 3 m/S 753 mmHg 86%
    01:00 +25°C° 0 mm 2 m/S 753 mmHg 88%
    02:00 +25°C° 0 mm 2 m/S 753 mmHg 90%
    03:00 +25°C° 0 mm 2 m/S 753 mmHg 92%
    04:00 +24°C° 0 mm 2 m/S 753 mmHg 94%
    05:00 +24°C° 0 mm 3 m/S 753 mmHg 96%
    06:00 +25°C° 0 mm 3 m/S 754 mmHg 88%
    07:00 +27°C° 0 mm 3 m/S 754 mmHg 80%
    08:00 +28°C° 0 mm 4 m/S 755 mmHg 73%
    09:00 +30°C° 0 mm 4 m/S 755 mmHg 64%
    10:00 +33°C° 0 mm 4 m/S 755 mmHg 56%
    11:00 +34°C° 0 mm 4 m/S 755 mmHg 48%
    12:00 +35°C° 0 mm 5 m/S 755 mmHg 43%
    13:00 +36°C° 0 mm 5 m/S 755 mmHg 39%
    14:00 +37°C° 0 mm 5 m/S 754 mmHg 35%
    15:00 +36°C° 0 mm 5 m/S 754 mmHg 35%
    16:00 +36°C° 0 mm 5 m/S 754 mmHg 36%
    17:00 +35°C° 0 mm 5 m/S 754 mmHg 37%
    18:00 +33°C° 0 mm 5 m/S 754 mmHg 44%
    19:00 +30°C° 0 mm 5 m/S 755 mmHg 51%
    20:00 +27°C° 0 mm 5 m/S 755 mmHg 58%
    21:00 +26°C° 0 mm 5 m/S 755 mmHg 62%
    22:00 +26°C° 0 mm 4 m/S 756 mmHg 66%
    23:00 +25°C° 0 mm 3 m/S 756 mmHg 70%

    7 Juni, Sonntag

    Zeit Temperatur Niederschläge Wind Luftdruck Luftfeuchtigkeit
    00:00 +24°C° 0 mm 3 m/S 756 mmHg 70%
    01:00 +24°C° 0 mm 3 m/S 756 mmHg 71%
    02:00 +24°C° 0 mm 3 m/S 756 mmHg 71%
    03:00 +22°C° 0 mm 3 m/S 756 mmHg 73%
    04:00 +22°C° 0 mm 3 m/S 756 mmHg 74%
    05:00 +21°C° 0 mm 3 m/S 756 mmHg 76%
    06:00 +23°C° 0 mm 4 m/S 756 mmHg 70%
    07:00 +26°C° 0 mm 4 m/S 756 mmHg 64%
    08:00 +27°C° 0 mm 5 m/S 757 mmHg 58%
    09:00 +29°C° 0 mm 5 m/S 756 mmHg 52%
    10:00 +32°C° 0 mm 5 m/S 756 mmHg 46%
    11:00 +33°C° 0 mm 6 m/S 756 mmHg 40%
    12:00 +34°C° 0 mm 6 m/S 756 mmHg 38%
    13:00 +35°C° 0 mm 6 m/S 755 mmHg 37%
    14:00 +35°C° 0 mm 6 m/S 755 mmHg 35%
    15:00 +35°C° 0 mm 6 m/S 754 mmHg 37%
    16:00 +34°C° 0 mm 6 m/S 754 mmHg 39%
    17:00 +33°C° 0 mm 6 m/S 754 mmHg 42%
    18:00 +32°C° 0 mm 6 m/S 754 mmHg 47%
    19:00 +29°C° 0 mm 5 m/S 754 mmHg 53%
    20:00 +27°C° 0 mm 5 m/S 755 mmHg 59%
    21:00 +26°C° 0 mm 5 m/S 755 mmHg 63%
    22:00 +25°C° 0 mm 5 m/S 755 mmHg 66%
    23:00 +25°C° 0 mm 5 m/S 755 mmHg 69%

    8 Juni, Montag

    Zeit Temperatur Niederschläge Wind Luftdruck Luftfeuchtigkeit
    00:00 +23°C° 0 mm 5 m/S 755 mmHg 73%
    01:00 +23°C° 0 mm 5 m/S 755 mmHg 76%
    02:00 +22°C° 0 mm 4 m/S 755 mmHg 79%
    03:00 +22°C° 0 mm 5 m/S 755 mmHg 81%
    04:00 +21°C° 0 mm 5 m/S 755 mmHg 84%
    05:00 +21°C° 0 mm 5 m/S 755 mmHg 86%
    06:00 +22°C° 0 mm 5 m/S 755 mmHg 79%
    07:00 +24°C° 0 mm 6 m/S 755 mmHg 72%
    08:00 +26°C° 0 mm 6 m/S 755 mmHg 65%
    09:00 +28°C° 0 mm 7 m/S 755 mmHg 58%
    10:00 +30°C° 0 mm 7 m/S 755 mmHg 52%
    11:00 +33°C° 0 mm 7 m/S 755 mmHg 45%
    12:00 +34°C° 0 mm 7 m/S 754 mmHg 43%
    13:00 +34°C° 0 mm 7 m/S 754 mmHg 42%
    14:00 +35°C° 0 mm 7 m/S 753 mmHg 40%
    15:00 +35°C° 0 mm 7 m/S 753 mmHg 43%
    16:00 +34°C° 0 mm 7 m/S 753 mmHg 45%
    17:00 +34°C° 0 mm 7 m/S 753 mmHg 47%
    18:00 +32°C° 0 mm 7 m/S 753 mmHg 55%
    19:00 +29°C° 0 mm 6 m/S 753 mmHg 62%
    20:00 +27°C° 0 mm 6 m/S 754 mmHg 69%
    21:00 +27°C° 0 mm 6 m/S 754 mmHg 74%
    22:00 +26°C° 0 mm 5 m/S 754 mmHg 78%
    23:00 +25°C° 0 mm 5 m/S 754 mmHg 83%
    Mehr zeigen